Retour au catalogue

FENGYUN 1C DEB

LostPO
NORAD 38126·DEBRIS·🇨🇳 China

Lancé May 10, 1999 depuis Taiyuan Satellite Launch Center

Loading…

Prochains Passages (prochaines 24 heures)

TLE

PériméSource: Space-Track

Époque: Sep 5, 2013, 13:51 UTC

1 38126U 99025EPX 13248.57725935 +.00000508 +00000-0 +71300-3 0  9993
2 38126 098.7260 289.7725 0341383 170.5848 188.4914 13.39621878144393

Suivez FENGYUN 1C DEB en temps réel avec AllMySat

Download on the App Store